Location: Derby
(52.9213°N, 1.4761°W)
Time: 14:32:14
(UTC+01:00)

Transit 2A - All Passes

Search period start: 18 May 2025 00:00
Search period end: 28 May 2025 00:00
Orbit: 600 x 946 km, 66.7° (Epoch: 17 May)

Date Brightness Start Highest point End Pass type
(mag) Time Alt. Az. Time Alt. Az. Time Alt. Az.
18 May - 07:27:15 10° SE 07:29:43 14° ESE 07:32:06 10° ENE daylight
18 May - 09:07:29 10° SW 09:12:05 85° SE 09:16:28 10° NE daylight
18 May - 10:51:55 10° W 10:55:35 24° NNW 10:59:11 10° NNE daylight
18 May - 12:37:50 10° NW 12:40:06 14° N 12:42:23 10° NNE daylight
18 May - 14:21:38 10° NNW 14:24:48 19° NNE 14:28:01 10° ENE daylight
18 May - 16:04:17 10° NW 16:08:38 60° NE 16:13:12 10° SE daylight
18 May - 17:47:43 10° WNW 17:51:21 25° WSW 17:55:08 10° S daylight
19 May - 08:31:36 10° SSW 08:36:06 59° SE 08:40:24 10° NE daylight
19 May - 10:15:23 10° W 10:19:22 30° NW 10:23:15 10° NNE daylight
19 May - 12:01:17 10° NW 12:03:43 14° N 12:06:10 10° NNE daylight
19 May - 13:45:38 10° NNW 13:48:28 17° NNE 13:51:21 10° ENE daylight
19 May - 15:28:20 10° NNW 15:32:33 44° NE 15:36:57 10° ESE daylight
19 May - 17:11:26 10° NW 17:15:29 36° WSW 17:19:46 10° S daylight
20 May - 07:55:53 10° S 08:00:11 40° ESE 08:04:17 10° NE daylight
20 May - 09:38:58 10° WSW 09:43:11 39° NW 09:47:18 10° NNE daylight
20 May - 11:24:38 10° NW 11:27:22 16° NNW 11:30:03 10° NNE daylight
20 May - 13:09:34 10° NNW 13:12:07 15° NNE 13:14:41 10° NE daylight
20 May - 14:52:23 10° NNW 14:56:23 33° NE 15:00:33 10° ESE daylight
20 May - 16:35:16 10° NW 16:39:34 52° WSW 16:44:07 10° SSE daylight
21 May - 07:20:25 10° S 07:24:18 28° ESE 07:28:02 10° ENE daylight
21 May - 09:02:39 10° WSW 09:07:04 53° NW 09:11:21 10° NE daylight
21 May - 10:47:57 10° WNW 10:51:01 18° NNW 10:54:02 10° NNE daylight
21 May - 12:33:24 10° NNW 12:35:43 14° N 12:38:05 10° NE daylight
21 May - 14:16:27 10° NNW 14:20:11 26° NNE 14:24:03 10° E daylight
21 May - 15:59:12 10° NW 16:03:36 75° SW 16:08:17 10° SSE daylight
21 May - 17:43:54 10° W 17:45:54 13° WSW 17:47:58 10° SW daylight
22 May - 06:45:15 10° SSE 06:48:28 19° ESE 06:51:35 10° ENE daylight
22 May - 08:26:28 10° SW 08:31:01 74° NW 08:35:22 10° NE daylight
22 May - 10:11:19 10° WNW 10:14:42 21° NNW 10:18:03 10° NNE daylight
22 May - 11:57:05 10° NNW 11:59:20 14° N 12:01:35 10° NNE daylight
22 May - 13:40:30 10° NNW 13:43:56 22° NNE 13:47:27 10° ENE daylight
22 May - 15:23:10 10° NW 15:27:35 78° NE 15:32:16 10° SE daylight
22 May - 17:06:59 10° WNW 17:10:08 19° WSW 17:13:25 10° SSW daylight
23 May - 06:10:40 10° SE 06:12:41 13° ESE 06:14:41 10° E daylight
23 May - 07:50:27 10° SSW 07:55:00 78° SE 07:59:21 10° NE daylight
23 May - 09:34:43 10° W 09:38:26 25° NNW 09:42:06 10° NNE daylight
23 May - 11:20:37 10° NW 11:22:56 14° N 11:25:14 10° NNE daylight
23 May - 13:04:32 10° NNW 13:07:38 18° NNE 13:10:48 10° ENE daylight
23 May - 14:47:12 10° NW 14:51:32 56° NE 14:56:06 10° ESE daylight
23 May - 16:30:31 10° WNW 16:34:18 27° WSW 16:38:17 10° S daylight
24 May - 07:14:35 10° SSW 07:19:01 53° ESE 07:23:17 10° NE daylight
24 May - 08:58:12 10° W 09:02:13 32° NW 09:06:10 10° NNE daylight
24 May - 10:44:02 10° NW 10:46:32 15° N 10:49:02 10° NNE daylight
24 May - 12:28:31 10° NNW 12:31:18 16° NNE 12:34:07 10° NE daylight
24 May - 14:11:14 10° NNW 14:15:25 41° NE 14:19:48 10° ESE daylight
24 May - 15:54:16 10° NW 15:58:25 39° WSW 16:02:49 10° S daylight
25 May - 06:38:56 10° S 06:43:05 36° ESE 06:47:07 10° NE daylight
25 May - 08:21:48 10° WSW 08:26:03 42° NW 08:30:13 10° NNE daylight
25 May - 10:07:23 10° NW 10:10:10 16° NNW 10:12:57 10° NNE daylight
25 May - 11:52:25 10° NNW 11:54:55 15° N 11:57:27 10° NE daylight
25 May - 13:35:17 10° NNW 13:39:14 32° NE 13:43:22 10° E daylight
25 May - 15:18:07 10° NW 15:22:28 57° WSW 15:27:08 10° SSE daylight
26 May - 06:03:31 10° S 06:07:13 25° ESE 06:10:49 10° ENE daylight
26 May - 07:45:31 10° SW 07:49:56 57° NW 07:54:15 10° NE daylight
26 May - 09:30:42 10° WNW 09:33:49 19° NNW 09:36:55 10° NNE daylight
26 May - 11:16:13 10° NNW 11:18:31 14° N 11:20:52 10° NE daylight
26 May - 12:59:20 10° NNW 13:03:01 25° NNE 13:06:50 10° E daylight
26 May - 14:42:03 10° NW 14:46:30 82° SW 14:51:14 10° SE daylight
26 May - 16:26:26 10° WNW 16:28:52 14° WSW 16:31:24 10° SW daylight
27 May - 05:28:27 10° SSE 05:31:25 17° ESE 05:34:17 10° ENE daylight
27 May - 07:09:22 10° SW 07:13:53 81° NW 07:18:14 10° NE daylight
27 May - 08:54:03 10° WNW 08:57:31 22° NNW 09:00:57 10° NNE daylight
27 May - 10:39:51 10° NNW 10:42:07 14° N 10:44:23 10° NNE daylight
27 May - 12:23:23 10° NNW 12:26:45 21° NNE 12:30:13 10° ENE daylight
27 May - 14:06:02 10° NW 14:10:28 72° NE 14:15:11 10° SE daylight
27 May - 15:49:41 10° WNW 15:53:04 21° WSW 15:56:37 10° SSW daylight
